Chicago Midway, IL

1:24 PM CDT on June 25, 2017 (GMT -0500)
Chicago-Midway

Weather History for KMDW - October, 2013

Change the Weather History Date:

Monday, October 28, 2013

  Actual Average Record
Temperature  
Mean Temperature 45 °F 50 °F  
Max Temperature 54 °F 58 °F 81 °F (1999)
Min Temperature 36 °F 42 °F 25 °F (1976)
Degree Days  
Heating Degree Days 20 15  
Month to date heating degree days 314 300  
Since 1 July heating degree days 368 382  
Cooling Degree Days 0 0  
Month to date cooling degree days 34 13  
Year to date cooling degree days 1091 1042  
Moisture  
Dew Point 38 °F    
Average Humidity 70    
Maximum Humidity 81    
Minimum Humidity 59    
Precipitation  
Precipitation 0.00 in 0.12 in 0.65 in (1970)
Month to date precipitation 1.90 2.90  
Year to date precipitation 27.93 32.76  
Sea Level Pressure  
Sea Level Pressure 30.26 in    
Wind  
Wind Speed 10 mph (NNE)    
Max Wind Speed 18 mph    
Max Gust Speed 23 mph    
Visibility 10 miles    
Events      
T = Trace of Precipitation, MM = Missing Value Source: NWS Daily Summary

Daily Weather History Graph

Daily Weather History Graph

Search for Another Location

Airport or City:

Trip Planner

Search our weather history database for the weather conditions in past years. The results will help you decide how hot, cold, wet, or windy it might be!

Date:

Astronomy

Oct. 28, 2013 Rise Set
Actual Time 7:18 AM CDT 5:50 PM CDT
Civil Twilight 6:50 AM CDT 6:18 PM CDT
Nautical Twilight 6:17 AM CDT 6:51 PM CDT
Astronomical Twilight 5:44 AM CDT 7:23 PM CDT
Moon 1:06 AM CDT (10/28) 2:36 PM CDT (10/28)
Length of Visible Light 11h 28m
Length of Day
10h 31m
Waning Crescent, 34% of the Moon is Illuminated
Oct 28
Waning Crescent
Nov 3
New
Nov 9
First Quarter
Nov 17
Full
Nov 25
Last Quarter

Hourly Weather History & Observations

Time (CDT) Temp. Windchill Dew Point Humidity Pressure Visibility Wind Dir Wind Speed Gust Speed Precip Events Conditions
12:51 AM 43.0 °F - 30.0 °F 60% 30.09 in 10.0 mi Calm Calm - N/A   Scattered Clouds
1:51 AM 41.0 °F 39.0 °F 30.0 °F 65% 30.09 in 10.0 mi SW 3.5 mph - N/A   Scattered Clouds
2:51 AM 39.9 °F - 30.9 °F 70% 30.10 in 10.0 mi Calm Calm - N/A   Partly Cloudy
3:51 AM 39.0 °F 36.8 °F 30.0 °F 70% 30.11 in 10.0 mi SSW 3.5 mph - N/A   Clear
4:51 AM 37.9 °F 32.1 °F 30.9 °F 76% 30.15 in 10.0 mi NW 8.1 mph 23.0 mph N/A   Clear
5:51 AM 37.0 °F - 30.9 °F 79% 30.17 in 10.0 mi Calm Calm - N/A   Clear
6:51 AM 37.0 °F 32.4 °F 30.9 °F 79% 30.19 in 10.0 mi NW 5.8 mph - N/A   Clear
7:51 AM 37.9 °F - 32.0 °F 79% 30.22 in 10.0 mi Calm Calm - N/A   Scattered Clouds
8:00 AM 39.2 °F - 33.8 °F 81% 30.21 in 10.0 mi Calm Calm - N/A   Mostly Cloudy
8:37 AM 44.6 °F 43.1 °F 37.4 °F 76% 30.22 in 10.0 mi NNW 3.5 mph - N/A   Scattered Clouds
8:51 AM 48.9 °F - 41.0 °F 74% 30.24 in 10.0 mi NE 13.8 mph 19.6 mph N/A   Partly Cloudy
9:51 AM 51.1 °F - 42.1 °F 71% 30.26 in 10.0 mi NE 16.1 mph - N/A   Scattered Clouds
10:51 AM 53.1 °F - 42.1 °F 66% 30.28 in 10.0 mi ENE 15.0 mph - N/A   Mostly Cloudy
11:51 AM 52.0 °F - 42.1 °F 69% 30.29 in 10.0 mi ENE 16.1 mph - N/A   Mostly Cloudy
12:51 PM 54.0 °F - 42.1 °F 64% 30.29 in 10.0 mi NE 12.7 mph 16.1 mph N/A   Mostly Cloudy
1:51 PM 52.0 °F - 42.1 °F 69% 30.28 in 10.0 mi NNE 13.8 mph - N/A   Mostly Cloudy
2:51 PM 52.0 °F - 41.0 °F 66% 30.28 in 10.0 mi NNE 12.7 mph - N/A   Mostly Cloudy
3:51 PM 51.1 °F - 41.0 °F 68% 30.30 in 10.0 mi NNE 13.8 mph - N/A   Mostly Cloudy
4:51 PM 50.0 °F - 39.9 °F 68% 30.32 in 10.0 mi NNE 16.1 mph - N/A   Mostly Cloudy
5:51 PM 48.9 °F - 39.9 °F 71% 30.33 in 10.0 mi North 12.7 mph - N/A   Mostly Cloudy
6:15 PM 48.2 °F - 39.2 °F 71% 30.31 in 10.0 mi North 11.5 mph - N/A   Mostly Cloudy
6:51 PM 48.0 °F - 39.9 °F 74% 30.34 in 10.0 mi NNE 12.7 mph - N/A   Scattered Clouds
7:51 PM 48.0 °F - 39.9 °F 74% 30.36 in 10.0 mi NNE 11.5 mph 19.6 mph N/A   Scattered Clouds
8:51 PM 46.9 °F - 39.0 °F 74% 30.36 in 10.0 mi NNE 11.5 mph - N/A   Scattered Clouds
9:44 PM 48.2 °F - 39.2 °F 71% 30.35 in 10.0 mi NNE 12.7 mph - N/A   Mostly Cloudy
9:51 PM 48.0 °F - 39.9 °F 74% 30.36 in 10.0 mi NNE 11.5 mph - N/A   Mostly Cloudy
10:51 PM 48.0 °F - 39.9 °F 74% 30.37 in 10.0 mi NE 11.5 mph - N/A   Overcast
11:51 PM 48.0 °F - 39.9 °F 74% 30.37 in 10.0 mi ENE 13.8 mph - N/A   Overcast